Regional Weather Roundup
Issued by NWS Upton, NY

Current Version | Previous Version | Text Only | Print | Product List | Glossary On
Versions: 1 2 3 4 5 6 7 8 9 10 11 12 13 14 15 16 17 18 19 20 21 22 23 24 25 26 27
000
ASUS41 KOKX 281105
RWROKX

REGIONAL WEATHER ROUNDUP
NATIONAL WEATHER SERVICE NEW YORK NY
700 AM EDT SAT MAY 28 2016

NOTE: "FAIR" INDICATES FEW OR NO CLOUDS BELOW 12,000 FEET WITH NO
SIGNIFICANT WEATHER AND/OR OBSTRUCTIONS TO VISIBILITY.

NYZ071-072-176-178-NJZ106-104-281200-
NEW YORK CITY METRO AREA


CITY           SKY/WX    TMP DP  RH WIND       PRES   REMARKS
CENTRAL PARK   MOSUNNY   72  58  61 W8G17     30.14R
LAGUARDIA APRT MOSUNNY   74  63  68 SW8       30.11R
KENNEDY INTL   PTSUNNY   67  60  78 SW8       30.13R
NEWARK/LIBERTY PTSUNNY   73  59  61 SW8       30.12R
BRNX BOT. GARD   N/A     73  59  60 W1        30.13S
TETERBORO      SUNNY     72  59  63 SW7       30.10R
$$

NYZ177-179-078>081-281200-
LONG ISLAND NEW YORK

CITY           SKY/WX    TMP DP  RH WIND       PRES   REMARKS
FARMINGDALE    SUNNY     66  58  75 SW7       30.13R
ISLIP          MOSUNNY   67  59  75 SW7       30.12R
SHIRLEY        SUNNY     67  60  78 SW8       30.13R
RIVERHEAD        N/A     68  61  77 W1        30.11S
WESTHAMPTON    MOSUNNY   64  58  80 SW8       30.14R
EAST HAMPTON   FAIR      64  58  82 SW7       30.12R
MONTAUK POINT    N/A     65  59  81 SW10G18   30.13R
$$

NYZ052-065-067-281200-
HUDSON VALLEY

CITY           SKY/WX    TMP DP  RH WIND       PRES   REMARKS
WHITE PLAINS   SUNNY     71  62  73 CALM      30.12R
NEWBURGH       MOSUNNY   70  70 100 W6        30.12R
MONTGOMERY     MOSUNNY   68  66  93 S3        30.10S FOG
POUGHKEEPSIE   MOSUNNY   70  66  87 CALM      30.08S
ALBANY         MOSUNNY   71  67  87 CALM      30.09R
$$

NJZ001-105-106-008-010-013-015-019>022-104-281200-
NEW JERSEY

CITY           SKY/WX    TMP DP  RH WIND       PRES   REMARKS
NEWARK/LIBERTY PTSUNNY   73  59  61 SW8       30.12R
TETERBORO      SUNNY     72  59  63 SW7       30.10R
CALDWELL       SUNNY     71  62  73 SW5       30.12R
MORRISTOWN     MOSUNNY   70  64  83 CALM      30.12R
SOMERVILLE     CLOUDY    68  65  90 CALM      30.11R
SUSSEX         MOSUNNY   70  67  90 SW5       30.12S FOG
ANDOVER          N/A     70  67  90 CALM      30.13R
TRENTON        MOSUNNY   69  60  73 SW6       30.14R
MILLVILLE      SUNNY     69  62  78 CALM      30.16R
ATLANTIC CITY  MOSUNNY   67  61  81 S5        30.16R
WRIGHTSTOWN    SUNNY     68  61  79 SW8       30.13R
TOMS RIVER     MOSUNNY   70  57  64 SW8       30.15S
BELMAR         SUNNY     67  60  78 SW6       30.15R
$$

PAZ047>061-062-071-281200-
EASTERN PENNSYLVANIA

CITY           SKY/WX    TMP DP  RH WIND       PRES   REMARKS
PHILADELPHIA   PTSUNNY   69  60  73 S6        30.15R
ALLENTOWN      CLOUDY    70  65  84 SW3       30.13R
SCRANTON       MOSUNNY   69  65  86 CALM      30.13R
$$

CTZ002-004>006-009-010-012-RIZ004-006-007-MAZ004-011-015-281200-
SOUTHERN NEW ENGLAND
 IN CT

CITY           SKY/WX    TMP DP  RH WIND       PRES   REMARKS
BRADLEY INTL   PTSUNNY   68  61  78 S5        30.09R
HARTFORD       SUNNY     71  62  73 S5        30.10R
DANBURY        MOSUNNY   70  64  81 W3        30.12R
WTRBRY/OXFORD  NOT AVBL
BRIDGEPORT     SUNNY     68  59  73 SW7       30.11R
MERIDEN        SUNNY     68  59  73 S5        30.10R
NEW HAVEN      MOSUNNY   67  59  75 VRB3      30.11R
CHESTER        FAIR      66  59  77 W8G15     30.11R
GROTON         MOSUNNY   66  60  81 W10       30.10R
WILLIMANTIC    SUNNY     66  59  78 CALM      30.11R

 IN RI

CITY           SKY/WX    TMP DP  RH WIND       PRES   REMARKS
PROVIDENCE     MOSUNNY   68  58  70 SW8       30.10R
BLOCK ISLAND   MOSUNNY   60  57  89 SW17        N/A
WESTERLY       CLOUDY    66  56  70 W6        30.12R

 IN MA

CITY           SKY/WX    TMP DP  RH WIND       PRES   REMARKS
BOSTON         MOSUNNY   70  60  70 SW9       30.06R
WORCESTER      SUNNY     68  62  81 W13       30.11R
WESTFIELD      CLOUDY    66  61  84 CALM      30.09R
PROVINCETOWN   MOSUNNY   62  57  83 SW15      30.08R
NANTUCKET      CLOUDY    65  60  84 S14       30.13S
$$

ANZ330-335-338-340-345-350-353-355-281200-
COASTAL MARINE OBSERVATIONS


STATION/POSITION TIME  SKY/WX   TEMP    WIND        PRES    VSBY  WAVE
                                AIR SEA DIR/SP/G                  HT/PER
                 (UTC)          (F)     (DEG/KT/KT) (MB)    (MI)  (FT/S)
NY HARB ENTRANCE 0950            60 58  200/ 10/ 10 1019.6          3/ 5
20S FIRE ISLAND  0950            61 58  220/ 14/ 14 1019.9          3/ 6
GREAT SOUTH BAY  1000            64 67  230/ 14/ 17   N/A
23 SSW MONTAUK P 1050            60 56  230/ 16/ 19 1019.8          4/ 6
15 E BARNEGAT LI 1022               59                N/A           3/ 5
HUDSON CANYON    0950            60 57              1021.5          3/ 5
KINGS POINT      1000            66 58              1019.2
EXECUTION ROCKS  NOT AVBL
CENTRAL LI SOUND 1000            63     230/  6/  8   N/A           1/ 3
EASTERN LI SOUND 1000            58 53  240/  6/  8   N/A
ROBBINS REEF     1006            70     250/  4/  5 1019.1
$$


>>>>>>>>>>>>>>>>>>>>>>>>>>>> KEY <<<<<<<<<<<<<<<<<<<<<<<<<<<
>                                                          <
>     SKY/WX - SKY CONDITION/PRESENT WEATHER               <
>     TMP    - TEMPERATURE IN FAHRENHEIT                   <
>     DP     - DEWPOINT IN FAHRENHEIT                      <
>     RH     - RELATIVE HUMIDITY IN PERCENT                <
>     WIND   - DIRECTION AND SPEED IN MPH                  <
>     PRES   - MEAN SEA LEVEL PRESSURE IN INCHES OF HG     <
>     WCI    - WIND CHILL INDEX                            <
>     VSB    - VISIBILITY IN MILES                         <
>     HX     - HEAT INDEX                                  <
>     TC     - TEMPERATURE IN CELSIUS                      <
>     VRB    - VARIABLE WIND DIRECTION                     <
>                                                          <
>>>>>>>>>>>>>>>>>>>>>>>>>>>> KEY <<<<<<<<<<<<<<<<<<<<<<<<<<<






USA.gov is the U.S. government's official web portal to all federal, state and local government web resources and services.